Regional Weather Roundup
Issued by NWS

Home | Current Version | Previous Version | Text Only | Print | Product List | Glossary Off
Versions: 1 2 3 4 5 6 7 8 9 10 11 12 13 14 15 16 17 18 19 20 21 22 23 24 25 26 27

000
ASUS45 KBOU 270907
RWRCO

WEATHER ROUNDUP FOR COLORADO
NATIONAL WEATHER SERVICE DENVER/BOULDER CO
300 AM MDT FRI MAY 27 2016

NOTE: "FAIR" INDICATES FEW OR NO CLOUDS BELOW 12000 FEET WITH NO
SIGNIFICANT WEATHER AND/OR OBSTRUCTIONS TO VISIBILITY.

COZ001>005-013-030-031-271000-
...NORTHWEST COLORADO...

CITY           SKY/WX    TMP DP  RH WIND       PRES   REMARKS
CRAIG          CLOUDY    44  39  82 SW5       29.98S
HAYDEN         CLOUDY    39  34  81 SW6       29.98S
MEEKER         FAIR      43  39  86 NE3       29.98S
MOUNT WERNER   NOT AVBL
STEAMBOAT SPGS FAIR      39  35  84 CALM      29.98S
WALDEN         FAIR      36  32  87 N7        30.00S
$$

COZ006>008-011-271000-
...WEST CENTRAL VALLEYS...

CITY           SKY/WX    TMP DP  RH WIND       PRES   REMARKS
GRAND JUNCTION MOCLDY    50  40  68 SE5       29.92S
MONTROSE       CLOUDY    47  37  68 E5        29.97F
EAGLE          CLOUDY    43  41  93 SW3       30.01F
RIFLE          CLOUDY    49  40  71 CALM      29.94F
DELTA          FAIR      53  38  58 CALM      29.95F
NUCLA          FAIR      45  36  70 E7        30.00S
$$

COZ017>023-064>068-271000-
...SOUTHWEST COLORADO...

CITY           SKY/WX    TMP DP  RH WIND       PRES   REMARKS
DURANGO        CLOUDY    46  30  53 W3        29.93F
CORTEZ         FAIR      40  34  79 NE8       29.96F
PAGOSA SPRINGS CLOUDY    40  36  84 CALM      29.99S
TELLURIDE      MOCLDY    35  35 100 CALM      30.06F FOG
WOLF CREEK PAS   N/A     27  27 100 N13G18    30.08F WCI  16
$$

COZ009-010-012-014-032>034-037-058>063-271000-
...CENTRAL COLORADO...

CITY           SKY/WX    TMP DP  RH WIND       PRES   REMARKS
ASPEN          CLOUDY    39  36  89 CALM      29.99F
BUENA VISTA    MOCLDY    38  37  93 CALM      29.95F
COPPER MTN     NOT AVBL
BERTHOUD PASS  HAZE      23  14  68 N15G24    30.08S VSB<1/4 WCI  10
COTTONWOOD PAS MOCLDY    37  32  81 W13       30.00S
GUNNISON       FAIR      43  34  70 CALM      30.00S
KREMMLING      MOCLDY    41  32  70 W7        29.98S
LEADVILLE      MOCLDY    32  29  88 N7        30.00F WCI  26
MONARCH PASS   SNOW      28  27  93 W12       30.16F VSB<1/4 WCI  18
SALIDA         CLOUDY    42  39  91 CALM      30.02S
SUNLIGHT       CLOUDY    32  32 100 NW6       30.12S FOG     WCI  26
WILKERSON PASS LGT SNOW  30  28  93 N10G20    30.03F WCI  21
$$

COZ069>075-271000-
...SAN LUIS VALLEY/SANGRE DE CRISTO MOUNTAINS...

CITY           SKY/WX    TMP DP  RH WIND       PRES   REMARKS
ALAMOSA        LGT RAIN  37  36  96 SW10      29.95F
LA VETA PASS   FOG       32  30  93 MISG      29.97F VSB 3/4
SAGUACHE       CLOUDY    39  36  87 NW10      29.96F
$$

COZ035-036-038>040-271000-
...NORTHERN COLORADO FRONT RANGE...

CITY           SKY/WX    TMP DP  RH WIND       PRES   REMARKS
DENVER INTL AP LGT RAIN  47  43  86 CALM      29.87F
DMNS CITY PARK   N/A     47  46  95 W2        29.87F
AURORA         LGT RAIN  45  45 100 N9        29.88F
FRONT RANGE AP NOT AVBL
ERIE MUNI ARPT LGT RAIN  48  46  93 CALM      29.87F
BOULDER MUN AP NOT AVBL
CENTENNIAL     LGT RAIN  45  41  86 MISG      29.89F
BROOMFIELD     LGT RAIN  46  45  93 CALM      29.90S
FORT COLLINS   FAIR      46  43  87 NW5       29.88F
LONGMONT       CLOUDY    48  45  87 CALM      29.89F
$$

COZ041-046-047-076>085-087-088-271000-
...PIKES PEAK/PALMER DIVIDE AND SOUTHERN FOOTHILLS...

CITY           SKY/WX    TMP DP  RH WIND       PRES   REMARKS
COLO. SPRINGS  LGT RAIN  45  41  86 NW8       29.88F FOG
A. F. ACADEMY  RAIN      43  43 100 N7        29.87F
SCHRIEVER AFB  NOT AVBL
ELLICOTT       RAIN     N/A N/A N/A N14       29.84F
FALCON         RAIN      39  37  93 N12G17    29.89F
FORT CARSON    RAIN      46  42  89 NW6       29.86F
LIMON          LGT RAIN  45  43  93 NW18      29.81F
MONUMENT HILL  LGT RAIN  37  36  93 N13G22    29.91F
TRINIDAD       CLOUDY    43  36  76 W8        29.87F
$$

COZ042>045-048>051-090-091-271000-
...NORTHEAST COLORADO...

CITY           SKY/WX    TMP DP  RH WIND       PRES   REMARKS
GREELEY ARPT   MOCLDY    48  46  93 W3        29.86S
AKRON          LGT RAIN  48  46  93 NW20      29.78F
BURLINGTON     CLOUDY    51  46  83 NW7       29.74F
WRAY           NOT AVBL
STERLING       RAIN      50  50 100 NW9       29.79F
HOLYOKE        NOT AVBL
FORT MORGAN    RAIN      48  46  93 W5        29.84S
$$

COZ086-089-092>099-271000-
...SOUTHEAST COLORADO...

CITY           SKY/WX    TMP DP  RH WIND       PRES   REMARKS
PUEBLO         LGT RAIN  50  46  86 W6        29.85F FOG
LA JUNTA       CLOUDY    52  43  71 NW14      29.79F
LAMAR          FAIR      43  39  86 W8        29.74F
SPRINGFIELD      N/A     44  39  82 NW15      29.76F
$$




USA.gov is the U.S. government's official web portal to all federal, state and local government web resources and services.